Terug naar catalogus

SL-14 R/B

ActiefPO
NORAD 17588·ROCKET BODY·🇷🇺 Russia

Gelanceerd Mar 13, 1987 vanaf Plesetsk Cosmodrome

Loading…

Volgende Passages (komende 24 uur)

TLE

VersSource: Space-Track

Epoch: Sep 14, 2026, 12:43 UTC

1 17588U 87026G   26257.53006042  .00000006  00000-0 -26423-4 0  9992
2 17588  82.5653 288.7780 0037394 321.2680 208.1686 12.55716771810785

Volg SL-14 R/B in realtime met AllMySat

Download on the App Store